www.pogodaiklimat.ru

Погода и климат >> Архив погоды >> Сейшелы >> Seychelles


АРХИВ ПОГОДЫ в Seychelles

Время (UTC), дата Ветер
(напр.,м/с)
 
Видим.   Явления Облачность Т
(С)
Тd
(С)
f
(%)
Тe
(С)
Тes
(С)
Комфортность P
(гПа)
Po
(гПа)
Тmin
(С)
Tmax
(С)
R
(мм)
R24
(мм)
S
(см)
12 11.12 СЗ 4 35 км 9 баллов +29.3 +23.7 72 +40 +41 очень
душно
1011.0 1011.0
15 11.12 З 4 30 км 9/1 480 м
[Cu Sc Ac trans Ci sp]
+27.7 +23.1 76 +37 +37 очень
душно
1013.3 1013.0
18 11.12 З 3 30 км слабый ливневой дождь 9/4 480 м
[Cu Sc Ac trans Ci sp]
+26.8 +23.0 80 +36 +36 очень
душно
1014.1 1014.0 +29.7 6
21 11.12 ЮЗ 1 30 км {ливн. осадки} 5/5 480 м
[Cu Sc Ac trans Ci sp]
+26.2 +23.3 84 +35 +35 очень
душно
1012.5 1013.0
00 12.12 ЮЗ 1 30 км {ливн. осадки} 9/5 420 м
[Cb cap Ac trans Ci sp]
+26.0 +23.5 86 +35 +35 очень
душно
1011.8 1012.0
03 12.12 СЗ 4 20 км слабый ливневой дождь 9/8 400 м
[Cb cap Ac trans]
+26.4 +23.5 84 +36 +36 очень
душно
1013.1 1013.0
06 12.12 С 6 40 км {ливн. осадки} 8/5 420 м
[Cb cap Ac trans Ci ing]
+28.4 +24.6 80 +40 +42 очень
душно
1013.5 1014.0 +24.9 7
09 12.12 З 5 20 км слабый ливневой дождь 10/9 210 м
[Cb cap Ac trans]
+25.6 +23.7 89 +35 +35 очень
душно
1012.4 1012.0
12 12.12 З 4 20 км слабый ливневой дождь 9/9 210 м
[Cb cap Ac trans Ci ing]
+25.8 +23.9 89 +35 +36 очень
душно
1011.4 1011.0
15 12.12 ЮЗ 2 20 км в посл. час ливневой дождь 10/6 210 м
[Cb cap Ac trans Ci ing]
+25.1 +23.2 89 +34 +34 очень
душно
1013.0 1013.0
18 12.12 З 5 10 км слабый ливневой дождь 9/4 270 м
[Cb cap Ac trans Ci ing]
+25.3 +23.3 89 +34 +34 очень
душно
1014.6 1015.0 +29.0 4
21 12.12 З 2 20 км слабый ливневой дождь 9/8 210 м
[Cb cap Ac trans Ci ing]
+24.2 +23.5 96 +33 +33 очень
душно
1013.0 1013.0
00 13.12 З 4 20 км слабый ливневой дождь 9/8 240 м
[Cb cap Ac trans Ci ing]
+24.4 +23.2 93 +33 +33 очень
душно
1012.6 1013.0
03 13.12 З 4 8000 м слабый ливневой дождь 9/8 420 м
[Cb cap Ac trans Ci ing]
+24.7 +22.9 90 +33 +33 очень
душно
1013.7 1014.0
06 13.12 З 6 20 км {ливн. осадки} 9/3 420 м
[Cb cap Ac trans Ci ing]
+28.1 +23.8 78 +39 +41 очень
душно
1013.6 1014.0 +24.1 29
09 13.12 СЗ 5 25 км 9/8 420 м
[Cb cap Ac trans Ci sp]
+27.6 +23.4 78 +37 +39 очень
душно
1011.9 1012.0
12 13.12 З 6 25 км 5/4 420 м
[Cb cap Ac trans Ci ing]
+29.2 +22.8 68 +39 +40 очень
душно
1010.1 1010.0
15 13.12 З 3 25 км в посл. час ливневой дождь 9/8 480 м
[Cu Sc Ac trans Ci sp]
+26.7 +24.0 85 +37 +37 очень
душно
1012.0 1012.0
18 13.12 З 3 25 км {ливн. осадки} 8/6 480 м
[Cu Sc Ac trans Ci sp]
+26.7 +22.8 79 +35 +35 очень
душно
1013.2 1013.0 +29.5 0.6
21 13.12 З 3 25 км 8/5 500 м
[Cu Sc Ci sp]
+26.4 +23.5 84 +36 +36 очень
душно
1011.8 1012.0
00 14.12 З 2 20 км в посл. час ливневой дождь 8/8 480 м
[Cu Sc Ci sp]
+25.2 +23.8 92 +34 +34 очень
душно
1011.1 1011.0
03 14.12 З 3 20 км 9/5 450 м
[Cb cap Ac trans Ci ing]
+25.5 +23.0 86 +34 +34 очень
душно
1012.5 1013.0
06 14.12 С 3 20 км 9/4 300 м
[Cu Sc Ac trans Ci sp]
+28.0 +24.5 81 +39 +43 очень
душно
1013.6 1014.0 +24.6 2
09 14.12 З 3 8000 м слабый ливневой дождь 9/9 270 м
[Cb cap]
+25.6 +23.9 90 +35 +37 очень
душно
1011.9 1012.0
12 14.12 С 6 20 км слабый ливневой дождь 9/9 210 м
[Cb cap Ac trans]
+26.9 +24.9 89 +39 +39 очень
душно
1010.2 1010.0
15 14.12 З 2 30 км {ливн. осадки} 4/1 400 м
[Cb cap Ac trans Ci ing]
+25.7 +22.5 83 +34 +34 очень
душно
1011.1 1011.0
18 14.12 З 3 30 км {ливн. осадки} 9/4 480 м
[Cu Sc Ac trans Ci sp]
+26.6 +24.8 90 +38 +38 очень
душно
1012.8 1013.0 +28.6 4
21 14.12 З 3 30 км 9/8 480 м
[Cu Sc Ac trans Ci sp]
+26.3 +23.6 85 +36 +36 очень
душно
1011.5 1012.0
00 15.12 З 3 30 км 8/6 480 м
[Cu Sc Ac trans Ci sp]
+25.5 +22.3 82 +33 +33 очень
душно
1010.5 1011.0
03 15.12 З 4 30 км 9/4 420 м
[Cb cap Ac trans Ci sp]
+26.2 +23.7 86 +36 +36 очень
душно
1012.2 1012.0
06 15.12 СЗ 5 30 км 8/4 300 м
[Cu Sc Ac trans Ci sp]
+28.2 +24.2 79 +39 +42 очень
душно
1013.4 1013.0 +25.5 4
09 15.12 С 5 30 км 9/1 480 м
[Cu Sc Ac trans Ci sp]
+29.2 +23.1 70 +39 +44 очень
душно
1012.1 1012.0
12 15.12 СЗ 4 30 км {ливн. осадки} 9/3 480 м
[Cu Sc Ac trans Ci sp]
+28.4 +24.6 80 +40 +42 очень
душно
1010.8 1011.0
15 15.12 СЗ 5 35 км 6/1 540 м
[Cu Sc Ac trans Ci sp]
+27.0 +22.5 76 +35 +35 очень
душно
1011.2 1011.0
18 15.12 З 3 30 км 9/8 480 м
[Cu Sc Ci sp]
+27.1 +23.6 81 +37 +37 очень
душно
1012.6 1013.0 +30.0 0.0
21 15.12 З 1 30 км 8/5 480 м
[Cu Sc Ci sp]
+26.7 +25.1 91 +38 +38 очень
душно
1011.5 1012.0
00 16.12 З 2 30 км 8/4 480 м
[Cu Sc Ci sp]
+26.3 +24.3 89 +37 +37 очень
душно
1011.0 1011.0
03 16.12 З 3 20 км 9/1 480 м
[Cu Sc Ac trans Ci sp]
+26.7 +24.4 87 +37 +38 очень
душно
1012.4 1012.0
06 16.12 С 3 40 км 9/3 570 м
[Cu Sc Ac trans Ci sp]
+28.9 +24.8 79 +41 +46 опасность
перегрева
1013.6 1014.0 +26.1 0.0
09 16.12 С 2 40 км 4/3 570 м
[Cu med, cong Ac trans Ci sp]
+29.5 +25.4 79 +43 +56 опасность
перегрева
1011.6 1012.0
12 16.12 С 3 40 км 6/3 420 м
[Cb cap Ac trans Ci ing]
+29.3 +24.3 75 +41 +44 опасность
перегрева
1010.7 1011.0
15 16.12 СЗ 3 40 км 9/3 540 м
[Cu Sc Ac trans Ci sp]
+27.7 +24.0 80 +38 +38 очень
душно
1012.5 1013.0
18 16.12 З 2 40 км 6/3 540 м
[Cu Sc Ac trans Ci sp]
+27.4 +24.3 83 +38 +38 очень
душно
1014.0 1014.0 +30.0
21 16.12 ЮЗ 2 40 км 1/1 540 м
[Cu Sc]
+26.4 +24.3 88 +37 +37 очень
душно
1012.4 1012.0
00 17.12 ЮЗ 2 40 км 1/1 480 м
[Cu med, cong]
+25.7 +22.6 83 +34 +34 очень
душно
1011.7 1012.0
03 17.12 Ю 2 40 км 4/3 480 м
[Cu med, cong Ac trans Ci sp]
+26.0 +23.5 86 +35 +36 очень
душно
1013.0 1013.0
06 17.12 СВ 2 40 км 5/3 480 м
[Cu Sc Ac trans Ci sp]
+29.5 +23.9 72 +41 +49 опасность
перегрева
1013.5 1014.0 +25.3
09 17.12 СВ 2 40 км 5/5 420 м
[Cb cap Ci ing]
+29.5 +24.2 73 +41 +51 опасность
перегрева
1012.0 1012.0
12 17.12 ЮЗ 1 40 км в посл. час ливневой дождь 9/5 420 м
[Cb cap Ac trans Ci sp]
+28.5 +23.8 76 +39 +42 очень
душно
1010.2 1010.0
15 17.12 Ю 1 40 км 6/6 420 м
[Cb cap Ac trans Ci sp]
+27.2 +24.0 83 +38 +38 очень
душно
1011.5 1012.0
18 17.12 ЮЗ 1 40 км 4/3 480 м
[Cu Sc Ci sp]
+26.0 +23.7 87 +35 +35 очень
душно
1013.3 1013.0 +30.0 0.0
21 17.12 ЮЗ 1 40 км 3/3 540 м
[Cu med, cong]
+25.6 +23.7 89 +35 +35 очень
душно
1012.5 1013.0
00 18.12 ЮЗ 1 40 км 3/3 500 м
[Cu med, cong]
+25.2 +23.0 88 +34 +34 очень
душно
1011.9 1012.0
03 18.12 З 2 40 км 9/1 570 м
[Cu med, cong Ac trans Ci]
+25.8 +23.9 89 +35 +36 очень
душно
1012.7 1013.0
06 18.12 С 3 45 км 6/5 420 м
[Cb cap Ac trans Ci ing]
+29.0 +24.6 77 +41 +46 опасность
перегрева
1014.3 1014.0 +24.9 0.0

 

Местоположение метеостанции Seychelles (Сейшелы): широта -4.67 долгота 55.52 высота над уровнем моря 3 м.

В архиве по умолчанию представлена погода в Seychelles за последнюю неделю. Архивные данные за месяц целиком и за предыдущие месяцы, начиная с января 2011 года, Вы можете получить, выбрав интересующий диапазон дат из раскрывающегося списка и нажав кнопку "Ввод!".

Внимание! Время в таблицах - всемирное. Для получения местного времени необходимо прибавить поправку, которая в Seychelles равна 4 ч.

Смотрите также архив погоды в соседних городах и на ближайших метеорологических станциях:

Погода в Agalega (Маврикий) (655 км)
Погода в Antsiranana (Мадагаскар) (1094 км)
Погода в Glorieuses Island (Реюньон) (1190 км)
Погода в Sambava (Мадагаскар) (1219 км)
Погода в Serge-Frolow (Реюньон) (1243 км)
Погода в Fascene (Мадагаскар) (1244 км)
Погода в Antalaha (Мадагаскар) (1274 км)
Погода в Mogadiscio (Сомали) (1354 км)
Погода в Saint Brandon Saint Raphael (Маврикий) (1385 км)
Погода в Antsohihy (Мадагаскар) (1404 км)

Пояснения к столбцам:

Ветер - указаны скорость ветра в м/с - средняя за 10 мин, порывы в срок и между сроками (в фигурных скобках) и направление, откуда дует ветер: С - северный, СВ - северо-восточный, В - восточный, ЮВ - юго-восточный, Ю - южный, ЮЗ - юго-западный, З - западный, СЗ - северо-западный.
Видимость - горизонтальная дальность видимости в метрах или километрах. При видимости от 1 до 10 км при отсутствии осадков обычно наблюдается дымка, при ухудшении видимости до 1 км и менее - туман. В сухую погоду видимость может ухудшаться дымом, пылью или мглою.
Явления - указаны атмосферные явления, наблюдавшиеся в срок или в последний час перед сроком; фигурными скобками обозначены явления, наблюдавшиеся между сроками (за 1-3 часа до срока); квадратными скобками обозначены град или гололедные отложения с указанием их диаметра в мм.
Облачность - указаны через наклонную черту общая и нижняя облачность в баллах и высота нижней границы облаков в метрах; квадратными скобками обозначены формы облаков: Ci - перистые, Cs - перисто-слоистые, Cc - перисто-кучевые, Ac - высококучевые, As - высокослоистые, Sc - слоисто-кучевые, Ns - слоисто-дождевые, Cu - кучевые, Cb - кучево-дождевые. Подробнее классификацию облаков см. в Атласе облаков (PDF).
T - Температура воздуха - температура, измеренная на высоте 2 м над землей.
Td - Температура точки росы - температура, при понижении до которой содержащийся в воздухе водяной пар достигнет насыщения.
f - Относительная влажность воздуха - влажноcть воздуха, измеренная на высоте 2 м над землей.
Te - Эффективная температура - температура, которую ощущает одетый по сезону человек в тени. Характеристика душности погоды. При расчете учитывается влияние влажности воздуха и скорости ветра на теплоощущения человека.
Tes - Эффективная температура на солнце - температура, которую ощущает человек, с поправкой на солнечный нагрев. Характеристика знойности погоды. Зависит от высоты солнца над горизонтом, облачности и скорости ветра. Ночью, в пасмурную погоду, а также при ветре 12 м/с и более поправка равна нулю.
P - Атмосферное давление - приведенное к уровню моря атмосферное давление.
Po - Атмосферное давление - измеренное на уровне метеостанции атмосферное давление.
Tmin - Минимальная температура - минимум температуры воздуха на высоте 2 м над землей.
Tmax - Максимальная температура - максимум температуры воздуха на высоте 2 м над землей.
R - Количество осадков - Количество выпавших осадков за период времени, мм. При наведении курсора мыши на число - период времени, за который выпало указанное количество осадков.
R24 - Количество осадков - Количество выпавших осадков за 24 часа, мм.
S - Снежный покров - Высота снежного покрова, см. При наведении курсора мыши на число - состояние снежного покрова и степень покрытия местности в баллах.